[[{"header":{"parameterUnit":"m.s-1","parameterCategory":1,"la1":30.2992,"la2":30.254,"lo1":-89.0895,"lo2":-89.0443,"dy":0.0025,"dx":0.0025,"nx":19,"ny":19,"refTime":"2026-03-11T09:00:00:Z","depth":0,"parameterNumber":2,"parameterNumberName":"U-component_of_WINDS"},"data":[0,0,0,-5.1919,-5.1924,-5.213,-5.213,-5.2442,-5.2445,0,0,0,0,0,0,0,0,0,0,0,-5.1888,-5.1891,-5.1919,-5.1925,-5.213,-5.213,-5.2441,-5.2445,0,0,0,0,0,0,0,0,0,0,0,-5.1886,-5.189,-5.1894,-5.1925,-5.213,-5.213,-5.244,-5.2268,0,0,0,0,0,0,0,0,0,0,-5.206,-5.206,-5.1889,-5.1894,-5.1927,-5.213,-5.2131,-5.2259,-5.2279,-5.2369,0,-5.2458,0,-5.2456,-5.2469,-5.247,0,0,0,-5.1903,-5.2044,-5.2072,-5.1894,-5.1929,-5.2129,-5.2031,-5.227,-5.2292,-5.2396,-5.2462,-5.2472,-5.2462,-5.2471,-5.2473,-5.3066,-5.307,0,0,-5.1892,-5.1941,-5.2057,-5.2088,-5.206,-5.2025,-5.2038,-5.2282,-5.2357,-5.2463,-5.2478,-5.2467,-5.2474,-5.2476,-5.3063,-5.3067,0,0,0,-5.1874,-5.1934,-5.1955,-5.2077,-5.211,-5.2031,-5.2046,-5.2346,-5.2349,-5.2481,-5.247,-5.2476,-5.248,-5.3059,-5.3064,-5.3301,0,0,0,-5.1866,-5.1923,-5.1951,-5.1984,-5.2107,-5.2231,-5.2106,-5.2332,-5.2358,-5.2469,-5.2476,-5.2484,-5.3054,-5.3062,-5.3285,-5.3406,0,0,0,-5.1864,-5.1922,-5.1962,-5.1986,-5.2076,-5.2226,-5.2242,-5.2337,-5.2353,-5.247,-5.2485,-5.3051,-5.306,-5.3272,-5.3383,-5.3578,0,0,0,-5.1877,-5.217,-5.1967,-5.2289,-5.2075,-5.237,-5.224,-5.2457,-5.2586,-5.2478,-5.3055,-5.3064,-5.3267,-5.3369,-5.3563,-5.3753,-5.3836,0,0,-5.2274,-5.222,-5.2405,-5.2229,-5.2574,-5.2334,-5.2713,-5.2784,-5.275,-5.2963,-5.2977,-5.3291,-5.3381,-5.3575,-5.4277,-5.4344,0,0,0,-5.2548,-5.2683,-5.2763,-5.2887,-5.2948,-5.301,-5.3017,-5.3043,-5.3221,-5.2869,-5.341,-5.3463,-5.3574,-5.3663,-5.3719,-5.3813,-5.3106,-5.3105,-5.3104,-5.3184,-5.3123,-5.3427,-5.3391,-5.3513,-5.3517,-5.361,-5.3646,-5.355,-5.3678,-5.3743,-5.4176,-5.4282,-5.4324,-5.4422,-5.3835,-5.3836,-5.3837,-5.3837,-5.3763,-5.3945,-5.3807,-5.4053,-5.3987,-5.4192,-5.4206,-5.4131,-5.4313,-5.4123,-5.4218,-5.4019,-5.4398,-5.4481,-5.3854,-5.3851,-5.3849,-5.3848,-5.3846,-5.4176,-5.4252,-5.4277,-5.4449,-5.4589,-5.4541,-5.4722,-5.4654,-5.4592,-5.4686,-5.4747,-5.4743,-5.4733,-5.4719,-5.4721,-5.4722,-5.4723,-5.4724,-5.4725,-5.4595,-5.4615,-5.4776,-5.4864,-5.4934,-5.5018,-5.5022,-5.5089,-5.5147,-5.5083,-5.5083,-5.4976,-5.4445,-5.4315,-5.4749,-5.4745,-5.4742,-5.4739,-5.4738,-5.5211,-5.506,-5.5309,-5.5379,-5.5475,-5.5619,-5.5528,-5.5671,-5.5716,-5.5808,-5.5678,-5.5295,-5.5235,-5.519,-5.5082,-5.5688,-5.5688,-5.5688,-5.5689,-5.5562,-5.5523,-5.5761,-5.5878,-5.5984,-5.5927,-5.6211,-5.6216,-5.6198,-5.6222,-5.6124,-5.5973,-5.593,-5.5896,-5.5835,-5.5733,-5.6492,-5.6493,-5.6493,-5.5937,-5.5905,-5.6161,-5.6139,-5.6208,-5.627,-5.6534,-5.6674,-5.6621,-5.6525,-5.624,-5.6207,-5.5963,-5.5886,-5.5788,-5.5695,-5.5507,0,0]},{"header":{"parameterUnit":"m.s-1","parameterCategory":1,"la1":30.2992,"la2":30.254,"lo1":-89.0895,"lo2":-89.0443,"dy":0.0025,"dx":0.0025,"nx":19,"ny":19,"refTime":"2026-03-11T09:00:00:Z","depth":0,"parameterNumber":3,"parameterNumberName":"V-component_of_WINDS"},"data":[0,0,0,-4.3457,-4.346,-4.3596,-4.3596,-4.3777,-4.3778,0,0,0,0,0,0,0,0,0,0,0,-4.3424,-4.3425,-4.3456,-4.346,-4.3596,-4.3596,-4.3776,-4.3778,0,0,0,0,0,0,0,0,0,0,0,-4.3423,-4.3425,-4.3427,-4.3461,-4.3595,-4.3596,-4.3776,-4.367,0,0,0,0,0,0,0,0,0,0,-4.3537,-4.3515,-4.3425,-4.3427,-4.3461,-4.3595,-4.3596,-4.3665,-4.3677,-4.3719,0,-4.3762,0,-4.3773,-4.3791,-4.3792,0,0,0,-4.3454,-4.3505,-4.3535,-4.3427,-4.3463,-4.3595,-4.3533,-4.3672,-4.3685,-4.3735,-4.3764,-4.377,-4.3776,-4.3793,-4.3794,-4.4062,-4.4064,0,0,-4.3446,-4.3452,-4.3526,-4.3544,-4.3527,-4.3528,-4.3537,-4.368,-4.3711,-4.3765,-4.3774,-4.3779,-4.3794,-4.3795,-4.4061,-4.4063,0,0,0,-4.3429,-4.3447,-4.3473,-4.3537,-4.3561,-4.3532,-4.3542,-4.3704,-4.3712,-4.3776,-4.3781,-4.3795,-4.3797,-4.4059,-4.4062,-4.4143,0,0,0,-4.3424,-4.3437,-4.347,-4.3475,-4.3559,-4.3635,-4.3564,-4.3703,-4.3718,-4.378,-4.3795,-4.3799,-4.4058,-4.4061,-4.4138,-4.4181,0,0,0,-4.3412,-4.3435,-4.3458,-4.3475,-4.3534,-4.3633,-4.3649,-4.3706,-4.3722,-4.3792,-4.38,-4.4057,-4.406,-4.4132,-4.4172,-4.4252,0,0,0,-4.3401,-4.3529,-4.3459,-4.3603,-4.3533,-4.3683,-4.3648,-4.3759,-4.3829,-4.3796,-4.4058,-4.4061,-4.4131,-4.4167,-4.4247,-4.432,-4.4352,0,0,-4.3565,-4.3549,-4.3633,-4.3575,-4.3739,-4.3662,-4.3837,-4.3896,-4.3896,-4.4006,-4.4013,-4.4139,-4.4172,-4.4251,-4.4528,-4.4553,0,0,0,-4.3687,-4.3747,-4.379,-4.3857,-4.3906,-4.3949,-4.398,-4.4001,-4.4094,-4.3955,-4.419,-4.4209,-4.4255,-4.429,-4.4312,-4.435,-4.4078,-4.4078,-4.4077,-4.3928,-4.3922,-4.406,-4.407,-4.4135,-4.4165,-4.4216,-4.4249,-4.4224,-4.428,-4.4312,-4.4481,-4.4522,-4.4538,-4.4578,-4.4351,-4.4352,-4.4352,-4.4352,-4.4167,-4.4251,-4.4213,-4.4334,-4.4326,-4.4426,-4.4457,-4.4436,-4.4526,-4.4457,-4.4497,-4.4421,-4.4566,-4.4601,-4.4358,-4.4357,-4.4356,-4.4356,-4.4355,-4.4323,-4.4362,-4.4386,-4.4481,-4.4554,-4.4559,-4.4647,-4.4636,-4.4626,-4.4666,-4.4698,-4.4697,-4.4693,-4.4682,-4.4683,-4.4684,-4.4684,-4.4684,-4.4685,-4.4476,-4.45,-4.4577,-4.4637,-4.4677,-4.4729,-4.4757,-4.4796,-4.4835,-4.482,-4.4821,-4.4788,-4.4582,-4.453,-4.4694,-4.4692,-4.4691,-4.469,-4.469,-4.472,-4.4663,-4.4782,-4.4822,-4.4889,-4.4961,-4.4946,-4.5025,-4.5055,-4.5097,-4.5056,-4.4906,-4.4888,-4.4871,-4.4827,-4.5059,-4.5059,-4.5059,-4.5059,-4.4852,-4.4842,-4.4959,-4.5024,-4.5086,-4.5083,-4.5213,-4.5235,-4.5248,-4.5266,-4.523,-4.5172,-4.5155,-4.5147,-4.5124,-4.5083,-4.5374,-4.5375,-4.5375,-4.5001,-4.4995,-4.511,-4.5124,-4.5175,-4.5218,-4.5339,-4.5412,-4.5415,-4.5388,-4.5279,-4.5265,-4.5171,-4.5141,-4.5111,-4.5075,-4.5,0,0]}]]